Location: Tucson
(32.2217°N, 110.9265°W)
Time: 19:30:04
(UTC-07:00)

OTV 5 (USA 277) - Visible Passes

Search period start: 17 January 2019 00:00
Search period end: 27 January 2019 00:00
Orbit: 339 x 349 km, 54.5° (Epoch: 15 January)

Date Brightness Start Highest point End Pass type
(mag) Time Alt. Az. Time Alt. Az. Time Alt. Az.
17 Jan ? 18:15:33 10° WNW 18:18:02 26° SW 18:20:29 10° S visible
23 Jan ? 06:17:34 10° S 06:19:35 17° SE 06:21:37 10° E visible
24 Jan ? 06:40:11 10° SW 06:43:04 86° SE 06:45:58 10° NE visible
25 Jan ? 05:30:30 12° SSE 05:32:02 16° SE 05:33:58 10° E visible
26 Jan ? 05:55:10 65° SSW 05:55:30 80° SE 05:58:25 10° NE visible
